FW3819 Weather Reports


Display with metric or nautical units.
time (UTC)temp
F
wind
direction
speed
MPH
gust
MPH
rain 1hr
in
rain 24hr
in
rain mn
in
humidity
%
barometer
mb
20260831045902 71 100 0.0 1.0 0.00 1.23 0.00 93 1020.0
20260831045402 71 54 0.0 1.0 0.00 1.23 0.00 93 1020.2
20260831045154 71 54 0.0 1.0 0.00 1.23 0.00 93 1020.4
20260831044402 71 54 0.0 1.0 0.00 1.23 0.00 93 1020.4
20260831043903 71 11 0.0 1.0 0.00 1.23 0.00 93 1020.5
20260831043651 71 234 0.0 0.0 0.00 1.23 0.00 93 1020.4
20260831042853 71 188 0.0 1.0 0.00 1.23 0.00 93 1020.3
20260831042348 71 326 0.0 1.0 0.00 1.23 0.00 93 1020.4
20260831041841 71 326 0.0 0.0 0.00 1.23 0.00 93 1020.4
20260831041334 71 54 0.0 0.0 0.00 1.23 0.00 93 1020.5
20260831040835 71 54 0.0 1.0 0.00 1.23 0.00 93 1020.5
20260831040623 71 11 0.0 1.0 0.00 1.23 0.00 93 1020.6
20260831035833 71 188 0.0 1.0 0.00 1.23 1.23 93 1020.5
20260831035332 71 171 0.0 1.0 0.00 1.23 1.23 93 1020.5
20260831035121 71 11 0.0 1.0 0.00 1.23 1.23 93 1020.5
20260831034332 71 100 0.0 1.0 0.00 1.23 1.23 93 1020.5
20260831033832 71 54 0.0 1.0 0.00 1.23 1.23 93 1020.4
20260831033332 71 28 0.0 1.0 0.00 1.23 1.23 93 1020.4
20260831032833 71 188 0.0 1.0 0.00 1.23 1.23 93 1020.3
20260831032432 71 326 0.0 0.0 0.00 1.23 1.23 92 1020.3
20260831032412 71 205 0.0 0.0 0.00 1.23 1.23 92 1020.3
20260831031422 71 54 0.0 1.0 0.00 1.23 1.23 93 1020.4
20260831031406 71 326 0.0 1.0 0.00 1.23 1.23 93 1020.4
20260831030330 71 326 0.0 1.0 0.00 1.23 1.23 93 1020.5
20260831025829 71 353 0.0 1.0 0.00 1.23 1.23 93 1020.4
20260831025621 71 28 0.0 1.0 0.00 1.23 1.23 92 1020.4
20260831024829 71 11 0.0 3.0 0.00 1.23 1.23 92 1020.6
20260831024323 71 353 1.0 3.0 0.00 1.23 1.23 92 1020.7
20260831023818 71 273 0.0 3.0 0.00 1.23 1.23 92 1020.7
20260831023310 71 279 0.0 1.0 0.00 1.23 1.23 92 1020.8
20260831022810 71 326 0.0 1.0 0.00 1.23 1.23 92 1020.8
20260831022311 71 326 0.0 1.0 0.00 1.23 1.23 92 1020.7
20260831021808 72 54 0.0 1.0 0.00 1.23 1.23 92 1020.8
20260831021307 72 353 0.0 1.0 0.00 1.23 1.23 92 1020.8
20260831021104 72 296 0.0 1.0 0.00 1.23 1.23 92 1020.8
20260831020308 72 353 0.0 1.0 0.00 1.23 1.23 92 1020.7
20260831015809 72 21 0.0 1.0 0.00 1.23 1.23 91 1020.6
20260831015400 72 11 0.0 1.0 0.00 1.23 1.23 91 1020.7
20260831015342 72 100 0.0 1.0 0.00 1.23 1.23 91 1020.7
20260831014307 72 73 0.0 1.0 0.00 1.23 1.23 91 1020.8
20260831013807 72 353 0.0 1.0 0.00 1.23 1.23 91 1020.8
20260831013602 72 326 0.0 3.0 0.00 1.23 1.23 91 1020.8
20260831012808 72 11 1.0 3.0 0.01 1.23 1.23 91 1020.8
20260831012408 72 215 0.0 3.0 0.01 1.23 1.23 91 1020.7
20260831012350 72 162 1.0 3.0 0.01 1.23 1.23 91 1020.9
20260831011309 72 100 0.0 1.0 0.01 1.23 1.23 90 1020.7
20260831010807 72 54 0.0 1.0 0.03 1.23 1.23 90 1020.5
20260831010603 72 296 0.0 1.0 0.08 1.23 1.23 90 1020.5
20260831005807 73 54 0.0 3.0 0.28 1.23 1.23 90 1020.5
20260831005306 73 54 1.0 4.0 0.47 1.23 1.23 89 1020.4
20260831004807 73 305 2.0 4.0 0.70 1.23 1.23 89 1020.4
20260831004302 73 184 1.0 4.0 0.91 1.23 1.23 89 1020.3
20260831003801 73 326 1.0 4.0 1.05 1.23 1.23 89 1020.2
20260831003302 73 248 1.0 4.0 1.15 1.23 1.23 88 1020.3
20260831002802 73 110 1.0 4.0 1.21 1.22 1.22 88 1020.4
20260831002305 73 54 2.0 11.0 1.22 1.22 1.22 87 1020.6
20260831001802 74 158 4.0 12.0 1.22 1.22 1.22 86 1020.9
20260831001557 74 152 3.0 12.0 1.22 1.22 1.21 85 1021.0
20260831000801 75 234 4.0 16.0 1.20 1.20 1.19 84 1020.9
20260831000303 76 131 7.0 19.0 1.14 1.14 1.13 83 1021.5
20260830235802 77 234 7.0 19.0 0.95 0.95 0.90 82 1021.8
20260830235552 78 227 6.0 19.0 0.75 0.75 0.72 80 1021.8
20260830234801 80 220 5.0 19.0 0.53 0.53 0.49 78 1021.5
20260830234301 82 229 3.0 14.0 0.32 0.32 0.28 77 1021.5
20260830233801 83 217 2.0 8.0 0.18 0.18 0.16 76 1021.1
20260830233302 84 82 2.0 5.0 0.08 0.08 0.07 73 1020.4
20260830232801 85 279 1.0 5.0 0.01 0.01 0.01 70 1020.2
20260830232301 85 244 0.0 3.0 0.00 0.00 0.00 68 1020.0
20260830232051 85 11 0.0 3.0 0.00 0.00 0.00 66 1019.8
20260830231302 85 279 0.0 1.0 0.00 0.00 0.00 65 1019.7
20260830230801 86 100 0.0 1.0 0.00 0.00 0.00 64 1019.8
20260830230304 86 326 0.0 1.0 0.00 0.00 0.00 64 1019.8
20260830225802 86 54 0.0 1.0 0.00 0.00 0.00 63 1019.8
20260830225601 87 279 0.0 3.0 0.00 0.00 0.00 63 1019.9
20260830224804 87 100 1.0 4.0 0.00 0.00 0.00 62 1019.9
20260830224303 87 143 1.0 4.0 0.00 0.00 0.00 60 1020.0
20260830223803 88 143 1.0 4.0 0.00 0.00 0.00 60 1019.9
20260830223303 88 162 1.0 4.0 0.00 0.00 0.00 60 1019.9
20260830222803 88 181 1.0 4.0 0.00 0.00 0.00 59 1019.9
20260830222552 88 73 2.0 5.0 0.00 0.00 0.00 59 1019.8
20260830221753 88 234 2.0 7.0 0.00 0.00 0.00 59 1019.7
20260830221543 88 227 2.0 7.0 0.00 0.00 0.00 59 1019.6
20260830221038 88 171 2.0 7.0 0.00 0.00 0.00 59 1019.5
20260830220232 88 192 2.0 7.0 0.00 0.00 0.00 59 1019.4
20260830215732 88 241 2.0 7.0 0.00 0.00 0.00 59 1019.4
20260830215231 88 108 1.0 7.0 0.00 0.00 0.00 59 1019.6
20260830214731 88 21 1.0 4.0 0.00 0.00 0.00 60 1019.4
20260830214232 88 100 1.0 4.0 0.00 0.00 0.00 60 1019.4
20260830213731 88 135 1.0 4.0 0.00 0.00 0.00 60 1019.4
20260830213232 88 100 1.0 5.0 0.00 0.00 0.00 60 1019.4
20260830212730 88 100 1.0 5.0 0.00 0.00 0.00 62 1019.4
20260830212230 87 205 0.0 3.0 0.00 0.00 0.00 63 1019.5
20260830211733 87 234 1.0 3.0 0.00 0.00 0.00 63 1019.5
20260830211232 87 326 1.0 4.0 0.00 0.00 0.00 62 1019.5
20260830211023 87 234 1.0 4.0 0.00 0.00 0.00 60 1019.4
20260830210230 87 100 1.0 3.0 0.00 0.00 0.00 61 1019.4
20260830205731 88 271 1.0 4.0 0.00 0.00 0.00 60 1019.4
20260830205230 89 54 1.0 4.0 0.00 0.00 0.00 57 1019.5
20260830204730 89 188 1.0 5.0 0.00 0.00 0.00 58 1019.6
20260830204521 89 125 1.0 5.0 0.00 0.00 0.00 57 1019.4
20260830203732 89 129 2.0 7.0 0.00 0.00 0.00 58 1019.6
20260830203230 89 260 3.0 9.0 0.00 0.00 0.00 55 1019.7
20260830202729 90 234 3.0 9.0 0.00 0.00 0.00 55 1019.8
20260830202230 90 253 3.0 11.0 0.00 0.00 0.00 57 1019.9
20260830201729 91 213 2.0 11.0 0.00 0.00 0.00 53 1019.9
20260830201230 90 246 2.0 8.0 0.00 0.00 0.00 54 1019.9
20260830200730 90 162 3.0 9.0 0.00 0.00 0.00 54 1019.8
20260830200230 90 213 2.0 9.0 0.00 0.00 0.00 54 1019.8
20260830195729 89 255 2.0 7.0 0.00 0.00 0.00 57 1019.9
20260830195230 90 160 2.0 7.0 0.00 0.00 0.00 54 1019.9
20260830195023 91 86 2.0 9.0 0.00 0.00 0.00 55 1019.9
20260830194230 90 239 2.0 9.0 0.00 0.00 0.00 54 1020.0
20260830193730 90 117 1.0 4.0 0.00 0.00 0.00 58 1019.9
20260830193231 90 234 1.0 4.0 0.00 0.00 0.00 55 1020.1
20260830192730 90 67 1.0 4.0 0.00 0.00 0.00 56 1020.2
20260830192230 89 143 2.0 7.0 0.00 0.00 0.00 56 1020.2
20260830191730 88 78 3.0 9.0 0.00 0.00 0.00 58 1020.4
20260830191231 88 132 3.0 9.0 0.00 0.00 0.00 58 1020.5
20260830191023 88 204 2.0 8.0 0.00 0.00 0.00 58 1020.6
20260830190229 88 153 2.0 5.0 0.00 0.00 0.00 59 1020.6
20260830185730 88 153 2.0 8.0 0.00 0.00 0.00 59 1020.7
20260830185231 89 181 2.0 8.0 0.00 0.00 0.00 59 1020.9
20260830185024 89 179 3.0 12.0 0.00 0.00 0.00 59 1020.9
20260830184230 88 150 4.0 12.0 0.00 0.00 0.00 59 1020.9
20260830183729 88 188 3.0 12.0 0.00 0.00 0.00 59 1021.0
20260830183229 88 172 2.0 12.0 0.00 0.00 0.00 59 1021.2
20260830182730 87 171 2.0 7.0 0.00 0.00 0.00 64 1021.2
20260830182230 87 340 2.0 9.0 0.00 0.00 0.00 64 1021.2
20260830181731 86 153 2.0 9.0 0.00 0.00 0.00 64 1021.4
20260830181230 86 178 2.0 9.0 0.00 0.00 0.00 64 1021.5
20260830181024 85 171 2.0 7.0 0.00 0.00 0.00 67 1021.6
20260830180234 84 166 2.0 7.0 0.00 0.00 0.00 68 1021.7
20260830175731 83 196 2.0 7.0 0.00 0.00 0.00 69 1021.9
20260830175231 83 28 3.0 11.0 0.00 0.00 0.00 70 1021.8
20260830174727 83 172 2.0 11.0 0.00 0.00 0.00 70 1022.0
20260830174220 83 213 2.0 7.0 0.00 0.00 0.00 71 1022.1
20260830174003 83 273 2.0 7.0 0.00 0.00 0.00 70 1022.1
20260830173211 83 210 2.0 7.0 0.00 0.00 0.00 69 1022.1
20260830173003 83 234 2.0 7.0 0.00 0.00 0.00 68 1022.2
20260830172211 84 215 2.0 7.0 0.00 0.00 0.00 68 1022.3
20260830171712 84 196 2.0 7.0 0.00 0.00 0.00 67 1022.5
20260830171213 85 249 3.0 14.0 0.00 0.00 0.00 67 1022.5
20260830170709 85 217 3.0 14.0 0.00 0.00 0.00 67 1022.5
20260830170210 85 196 3.0 11.0 0.00 0.00 0.00 66 1022.6
20260830170159 85 208 4.0 14.0 0.00 0.00 0.00 65 1022.5
20260830165858 85 143 4.0 12.0 0.00 0.00 0.00 66 1022.5
20260830165827 85 205 3.0 14.0 0.00 0.00 0.00 64 1022.5
20260830164506 85 181 4.0 12.0 0.00 0.00 0.00 66 1022.6
20260830163709 85 205 4.0 11.0 0.00 0.00 0.00 67 1022.6
20260830163503 84 187 3.0 11.0 0.00 0.00 0.00 68 1022.5
20260830163004 84 187 3.0 9.0 0.00 0.00 0.00 68 1022.7
20260830162209 83 234 3.0 9.0 0.00 0.00 0.00 71 1022.7
20260830161708 82 205 3.0 9.0 0.00 0.00 0.00 71 1022.7
20260830161207 82 110 2.0 9.0 0.00 0.00 0.00 71 1022.8
20260830161008 82 201 2.0 7.0 0.00 0.00 0.00 71 1022.9
20260830160208 82 201 3.0 9.0 0.00 0.00 0.00 72 1022.9
20260830160002 81 181 3.0 9.0 0.00 0.00 0.00 72 1023.1
20260830155208 81 205 2.0 9.0 0.00 0.00 0.00 73 1023.1
20260830154708 81 160 3.0 9.0 0.00 0.00 0.00 74 1023.1
20260830154500 80 158 3.0 12.0 0.00 0.00 0.00 75 1023.2
20260830153958 79 171 3.0 12.0 0.00 0.00 0.00 77 1023.3
20260830153203 78 174 4.0 11.0 0.00 0.00 0.00 78 1023.4
20260830152704 78 171 4.0 12.0 0.00 0.00 0.00 78 1023.4
20260830152500 78 188 3.0 12.0 0.00 0.00 0.00 79 1023.3
20260830151705 78 282 2.0 8.0 0.00 0.00 0.00 80 1023.3
20260830151204 78 132 3.0 8.0 0.00 0.00 0.00 80 1023.1
20260830150704 78 129 2.0 9.0 0.00 0.00 0.00 81 1023.1
20260830150459 77 188 3.0 9.0 0.00 0.00 0.00 81 1023.2
20260830145702 77 171 3.0 9.0 0.00 0.00 0.00 81 1023.2
20260830145203 77 191 3.0 11.0 0.00 0.00 0.00 81 1023.3
20260830144702 77 184 3.0 11.0 0.00 0.00 0.00 81 1023.3
20260830144201 77 196 2.0 11.0 0.00 0.00 0.00 82 1023.2
20260830143704 77 175 2.0 5.0 0.00 0.00 0.00 82 1023.3
20260830143202 77 143 2.0 7.0 0.00 0.00 0.00 83 1023.3
20260830142701 76 157 2.0 7.0 0.00 0.00 0.00 83 1023.2
20260830142203 76 173 2.0 12.0 0.00 0.00 0.00 83 1023.3
20260830141701 76 168 2.0 12.0 0.00 0.00 0.00 84 1023.3
20260830141204 76 326 1.0 5.0 0.00 0.00 0.00 84 1023.2
20260830140702 76 353 2.0 5.0 0.00 0.00 0.00 85 1023.1
20260830140204 76 153 2.0 7.0 0.00 0.00 0.00 85 1023.1
20260830135704 75 134 2.0 7.0 0.00 0.00 0.00 86 1023.1
20260830135204 75 179 1.0 5.0 0.00 0.00 0.00 86 1023.3
20260830134704 75 171 1.0 4.0 0.00 0.00 0.00 87 1023.4
20260830134201 75 171 2.0 7.0 0.00 0.00 0.00 87 1023.4
20260830133702 75 223 2.0 7.0 0.00 0.00 0.00 87 1023.5
20260830133459 75 152 1.0 7.0 0.00 0.00 0.00 87 1023.6
20260830132701 74 210 2.0 7.0 0.00 0.00 0.00 88 1023.7
20260830132201 74 156 2.0 7.0 0.00 0.00 0.00 88 1023.6
20260830131702 74 166 1.0 5.0 0.00 0.00 0.00 89 1023.6
20260830131201 74 188 1.0 5.0 0.00 0.00 0.00 89 1023.6
20260830130655 74 143 1.0 4.0 0.00 0.00 0.00 89 1023.8
20260830130149 74 251 1.0 7.0 0.00 0.00 0.00 89 1023.8
20260830125643 74 166 1.0 7.0 0.00 0.00 0.00 89 1023.9
20260830125137 73 181 1.0 5.0 0.00 0.00 0.00 90 1023.8
20260830124930 73 166 1.0 8.0 0.00 0.00 0.00 90 1023.8
20260830124132 73 134 1.0 8.0 0.00 0.00 0.00 90 1023.8
20260830123634 73 135 1.0 5.0 0.00 0.00 0.00 90 1023.8
20260830123131 73 100 1.0 4.0 0.00 0.00 0.00 91 1023.8
20260830122631 73 151 1.0 4.0 0.00 0.00 0.00 91 1023.8
20260830122132 73 143 1.0 4.0 0.00 0.00 0.00 91 1023.9
20260830121631 73 234 1.0 5.0 0.00 0.00 0.00 91 1023.9
20260830121429 72 143 1.0 5.0 0.00 0.00 0.00 91 1023.9
20260830120631 72 160 1.0 5.0 0.00 0.00 0.00 91 1023.9
20260830120423 72 155 2.0 8.0 0.00 0.00 0.00 92 1023.9
20260830115921 72 73 2.0 9.0 0.00 0.00 0.00 91 1023.8
20260830115130 72 198 1.0 9.0 0.00 0.00 0.00 92 1023.7
20260830114630 72 234 1.0 5.0 0.00 0.00 0.00 92 1023.7
20260830114227 72 220 1.0 5.0 0.00 0.00 0.00 92 1023.8
20260830114209 72 54 1.0 5.0 0.00 0.00 0.00 92 1023.7
20260830113130 72 100 1.0 4.0 0.00 0.00 0.00 92 1023.7
20260830112630 72 129 1.0 4.0 0.00 0.00 0.00 92 1023.8
20260830112130 71 188 1.0 4.0 0.00 0.00 0.00 92 1023.9
20260830111630 71 121 1.0 3.0 0.00 0.00 0.00 92 1024.1
20260830111130 71 181 1.0 3.0 0.00 0.00 0.00 92 1024.0
20260830110926 71 125 1.0 4.0 0.00 0.00 0.00 92 1024.0
20260830110130 71 132 1.0 4.0 0.00 0.00 0.00 92 1024.0
20260830105629 71 143 1.0 3.0 0.00 0.00 0.00 92 1024.1
20260830105131 71 125 1.0 3.0 0.00 0.00 0.00 92 1024.0
20260830104630 71 178 1.0 3.0 0.00 0.00 0.00 92 1024.0
20260830104130 71 125 1.0 3.0 0.00 0.00 0.00 92 1024.0
20260830103629 71 125 1.0 3.0 0.00 0.00 0.00 92 1024.0
20260830103130 71 116 0.0 3.0 0.00 0.00 0.00 92 1023.9
20260830102630 70 143 0.0 3.0 0.00 0.00 0.00 92 1023.8
20260830102129 70 234 0.0 3.0 0.00 0.00 0.00 92 1023.8
20260830101924 70 100 0.0 3.0 0.00 0.00 0.00 92 1023.8
20260830101131 70 143 0.0 3.0 0.00 0.00 0.00 92 1023.7
20260830100629 70 116 0.0 3.0 0.00 0.00 0.00 91 1023.8
20260830100421 70 143 0.0 3.0 0.00 0.00 0.00 91 1023.7
20260830095910 70 143 0.0 3.0 0.00 0.00 0.00 91 1023.7
20260830095111 69 143 0.0 3.0 0.00 0.00 0.00 91 1023.7
20260830094703 69 11 0.0 3.0 0.00 0.00 0.00 90 1023.8
20260830094644 69 82 0.0 3.0 0.00 0.00 0.00 91 1023.7
20260830093611 69 110 1.0 3.0 0.00 0.00 0.00 90 1023.8
20260830093113 69 187 0.0 3.0 0.00 0.00 0.00 90 1023.8
20260830092610 69 260 0.0 1.0 0.00 0.00 0.00 90 1023.9
20260830092111 69 215 0.0 1.0 0.00 0.00 0.00 90 1023.8
20260830091611 69 54 0.0 1.0 0.00 0.00 0.00 89 1023.7
20260830091110 68 82 0.0 1.0 0.00 0.00 0.00 89 1023.7
20260830090610 68 28 0.0 1.0 0.00 0.00 0.00 89 1023.8
20260830090111 68 100 0.0 1.0 0.00 0.00 0.00 89 1023.7
20260830085612 68 326 0.0 1.0 0.00 0.00 0.00 89 1023.7
20260830085109 68 11 0.0 0.0 0.00 0.00 0.00 89 1023.5
20260830084901 68 234 0.0 1.0 0.00 0.00 0.00 89 1023.5
20260830084109 68 234 0.0 1.0 0.00 0.00 0.00 88 1023.6
20260830083903 68 296 0.0 1.0 0.00 0.00 0.00 88 1023.7
20260830083107 68 54 0.0 1.0 0.00 0.00 0.00 88 1023.6
20260830082602 68 54 0.0 1.0 0.00 0.00 0.00 88 1023.7
20260830082104 68 54 0.0 1.0 0.00 0.00 0.00 88 1023.7
20260830081603 68 54 0.0 1.0 0.00 0.00 0.00 88 1023.8
20260830081101 68 11 0.0 1.0 0.00 0.00 0.00 88 1023.8
20260830080601 68 28 0.0 1.0 0.00 0.00 0.00 88 1023.8
20260830075602 68 11 0.0 1.0 0.00 0.00 0.00 87 1023.8
20260830075100 68 54 0.0 1.0 0.00 0.00 0.00 87 1023.7
20260830074602 68 279 0.0 1.0 0.00 0.00 0.00 87 1023.7
20260830074101 68 279 0.0 1.0 0.00 0.00 0.00 87 1023.7
20260830073602 68 143 0.0 1.0 0.00 0.00 0.00 87 1023.6
20260830073101 68 11 0.0 1.0 0.00 0.00 0.00 87 1023.6
20260830072601 68 54 0.0 1.0 0.00 0.00 0.00 87 1023.7
20260830072100 69 54 0.0 1.0 0.00 0.00 0.00 87 1023.7
20260830071602 69 11 0.0 1.0 0.00 0.00 0.00 87 1023.7
20260830071101 69 11 0.0 1.0 0.00 0.00 0.00 87 1023.7
20260830070603 69 326 0.0 1.0 0.00 0.00 0.00 87 1023.7
20260830065604 69 326 0.0 1.0 0.00 0.00 0.00 86 1023.8
20260830065101 69 54 0.0 1.0 0.00 0.00 0.00 86 1023.9
20260830064602 69 54 0.0 1.0 0.00 0.00 0.00 86 1023.9
20260830064100 69 54 0.0 1.0 0.00 0.00 0.00 86 1023.9
20260830063602 69 100 0.0 1.0 0.00 0.00 0.00 86 1024.0
20260830063101 69 54 0.0 1.0 0.00 0.00 0.00 86 1024.1
20260830062600 69 54 0.0 1.0 0.00 0.00 0.00 86 1024.1
20260830062059 69 54 0.0 1.0 0.00 0.00 0.00 86 1024.1
20260830061849 69 11 0.0 1.0 0.00 0.00 0.00 86 1024.3
20260830061058 69 188 0.0 1.0 0.00 0.00 0.00 86 1024.3
20260830060554 69 82 0.0 1.0 0.00 0.00 0.00 86 1024.5
20260830060055 69 326 0.0 1.0 0.00 0.00 0.00 86 1024.5
20260830055555 69 82 0.0 1.0 0.00 0.00 0.00 86 1024.6
20260830055054 69 279 0.0 1.0 0.00 0.00 0.00 86 1024.7
20260830054554 69 100 0.0 1.0 0.00 0.00 0.00 86 1024.5
20260830054052 69 54 0.0 1.0 0.00 0.00 0.00 86 1024.5
20260830053842 69 54 0.0 0.0 0.00 0.00 0.00 86 1024.6
20260830053050 69 234 0.0 1.0 0.00 0.00 0.00 85 1024.5
20260830052550 69 54 0.0 1.0 0.00 0.00 0.00 85 1024.5
20260830052051 69 279 0.0 1.0 0.00 0.00 0.00 85 1024.5
20260830051546 69 326 0.0 1.0 0.00 0.00 0.00 85 1024.5
20260830051043 69 82 0.0 1.0 0.00 0.00 0.00 85 1024.4
20260830050542 69 54 0.0 1.0 0.00 0.00 0.00 85 1024.5